TimeEST,TemperatureF,Dew PointF,Humidity,Sea Level PressureIn,VisibilityMPH,Wind Direction,Wind SpeedMPH,Gust SpeedMPH,PrecipitationIn,Events,Conditions,WindDirDegrees,DateUTC
12:56 AM,27.0,14.0,58,30.13,10.0,West,6.9,-,N/A,,Clear,260,2012-12-31 05:56:00
1:56 AM,26.1,15.1,63,30.14,10.0,West,11.5,-,N/A,,Clear,260,2012-12-31 06:56:00
2:56 AM,26.1,15.1,63,30.15,10.0,WSW,8.1,-,N/A,,Clear,250,2012-12-31 07:56:00
3:56 AM,24.1,14.0,65,30.14,10.0,WSW,3.5,-,N/A,,Clear,240,2012-12-31 08:56:00
4:56 AM,25.0,15.1,66,30.15,10.0,WSW,5.8,-,N/A,,Scattered Clouds,240,2012-12-31 09:56:00
5:56 AM,27.0,15.1,61,30.14,10.0,WSW,8.1,-,N/A,,Scattered Clouds,250,2012-12-31 10:56:00
6:56 AM,28.9,17.1,61,30.14,10.0,West,6.9,-,N/A,,Mostly Cloudy,260,2012-12-31 11:56:00
7:56 AM,30.0,19.0,64,30.14,10.0,West,10.4,-,N/A,,Overcast,260,2012-12-31 12:56:00
8:56 AM,32.0,19.9,61,30.13,10.0,West,10.4,-,N/A,,Overcast,260,2012-12-31 13:56:00
9:56 AM,33.1,19.0,56,30.14,10.0,West,13.8,-,N/A,,Overcast,270,2012-12-31 14:56:00
10:56 AM,34.0,19.0,54,30.12,10.0,West,15.0,-,N/A,,Mostly Cloudy,270,2012-12-31 15:56:00
11:56 AM,36.0,19.0,50,30.07,10.0,West,16.1,-,N/A,,Mostly Cloudy,260,2012-12-31 16:56:00
12:56 PM,36.0,19.0,50,30.03,10.0,West,13.8,19.6,N/A,,Mostly Cloudy,270,2012-12-31 17:56:00
1:56 PM,37.0,19.9,50,30.02,10.0,WSW,10.4,-,N/A,,Overcast,250,2012-12-31 18:56:00
2:56 PM,39.0,21.9,50,30.00,10.0,SW,9.2,-,N/A,,Overcast,230,2012-12-31 19:56:00
3:56 PM,37.0,21.9,54,29.96,10.0,SW,10.4,-,N/A,,Overcast,230,2012-12-31 20:56:00
4:56 PM,35.1,21.9,59,29.96,10.0,WSW,11.5,-,N/A,,Mostly Cloudy,240,2012-12-31 21:56:00
7:56 PM,37.9,19.9,48,29.93,10.0,WSW,13.8,21.9,N/A,,Overcast,250,2013-01-01 00:56:00
8:56 PM,37.9,19.9,48,29.88,10.0,WSW,10.4,-,N/A,,Overcast,250,2013-01-01 01:56:00
10:56 PM,39.9,21.9,49,29.87,10.0,WSW,18.4,26.5,N/A,,Overcast,250,2013-01-01 03:56:00
11:56 PM,39.0,24.1,55,29.86,10.0,WSW,16.1,23.0,N/A,,Overcast,250,2013-01-01 04:56:00